Time,TemperatureF,DewpointF,PressureIn,WindDirection,WindDirectionDegrees,WindSpeedMPH,WindSpeedGustMPH,Humidity,HourlyPrecipIn,Conditions,Clouds,dailyrainin,SoftwareType,DateUTC
2013-04-23 00:02:00,48.0,39.1,30.36,ENE,74,2.6,5.0,71,0.00,NA,NA,0.00,WeatherLink_script,2013-04-23 04:02:00,
2013-04-23 00:04:00,48.0,38.7,30.35,ENE,68,3.5,5.0,70,0.00,NA,NA,0.00,WeatherLink_script,2013-04-23 04:04:00,
2013-04-23 00:06:00,48.0,38.7,30.35,East,92,2.5,5.0,70,0.00,NA,NA,0.00,WeatherLink_script,2013-04-23 04:06:00,
2013-04-23 00:07:00,48.0,38.7,30.35,East,92,2.5,5.0,70,0.00,NA,NA,0.00,WeatherLink_script,2013-04-23 04:07:00,
2013-04-23 00:10:00,47.8,38.9,30.35,East,100,0.5,1.0,71,0.00,NA,NA,0.00,WeatherLink_script,2013-04-23 04:10:00,
2013-04-23 00:15:00,47.7,38.8,30.35,NE,44,3.8,6.0,71,0.00,NA,NA,0.00,WeatherLink_script,2013-04-23 04:15:00,
2013-04-23 00:20:00,47.6,38.7,30.35,NE,56,0.3,1.0,71,0.00,NA,NA,0.00,WeatherLink_script,2013-04-23 04:20:00,
2013-04-23 00:26:00,47.5,38.9,30.35,SE,133,0.0,0.0,72,0.00,NA,NA,0.00,WeatherLink_script,2013-04-23 04:26:00,
2013-04-23 00:31:00,47.5,39.3,30.35,SE,133,1.2,3.0,73,0.00,NA,NA,0.00,WeatherLink_script,2013-04-23 04:31:00,
2013-04-23 00:36:00,47.4,38.8,30.34,NNE,16,2.4,4.0,72,0.00,NA,NA,0.00,WeatherLink_script,2013-04-23 04:36:00,
2013-04-23 00:41:00,47.4,38.8,30.35,North,6,1.6,4.0,72,0.00,NA,NA,0.00,WeatherLink_script,2013-04-23 04:41:00,
2013-04-23 00:46:00,47.4,38.5,30.35,ENE,57,4.0,5.0,71,0.00,NA,NA,0.00,WeatherLink_script,2013-04-23 04:46:00,
2013-04-23 00:51:00,47.4,38.5,30.34,East,80,1.6,3.0,71,0.00,NA,NA,0.00,WeatherLink_script,2013-04-23 04:51:00,
2013-04-23 00:56:00,47.2,38.3,30.34,NE,49,1.2,2.0,71,0.00,NA,NA,0.00,WeatherLink_script,2013-04-23 04:56:00,
2013-04-23 01:01:00,47.3,38.4,30.34,NE,50,0.8,2.0,71,0.00,NA,NA,0.00,WeatherLink_script,2013-04-23 05:01:00,
2013-04-23 01:06:00,47.3,38.7,30.34,NNE,27,1.5,3.0,72,0.00,NA,NA,0.00,WeatherLink_script,2013-04-23 05:06:00,
2013-04-23 01:11:00,47.2,39.0,30.34,NNW,332,1.4,3.0,73,0.00,NA,NA,0.00,WeatherLink_script,2013-04-23 05:11:00,
2013-04-23 01:16:00,47.1,38.9,30.34,NNW,335,1.4,3.0,73,0.00,NA,NA,0.00,WeatherLink_script,2013-04-23 05:16:00,
2013-04-23 01:21:00,47.1,38.5,30.33,NNE,20,3.4,5.0,72,0.00,NA,NA,0.00,WeatherLink_script,2013-04-23 05:21:00,
2013-04-23 01:26:00,47.1,38.5,30.34,NE,43,2.0,5.0,72,0.00,NA,NA,0.00,WeatherLink_script,2013-04-23 05:26:00,
2013-04-23 01:31:00,47.0,38.5,30.33,ENE,74,1.5,3.0,72,0.00,NA,NA,0.00,WeatherLink_script,2013-04-23 05:31:00,
2013-04-23 01:36:00,47.0,38.4,30.33,NE,42,2.0,3.0,72,0.00,NA,NA,0.00,WeatherLink_script,2013-04-23 05:36:00,
2013-04-23 01:41:00,46.9,38.7,30.33,NNE,20,1.4,3.0,73,0.00,NA,NA,0.00,WeatherLink_script,2013-04-23 05:41:00,
2013-04-23 01:46:00,47.0,38.8,30.33,NNE,26,2.5,5.0,73,0.00,NA,NA,0.00,WeatherLink_script,2013-04-23 05:46:00,
2013-04-23 01:51:00,47.0,38.8,30.33,North,11,1.9,3.0,73,0.00,NA,NA,0.00,WeatherLink_script,2013-04-23 05:51:00,
2013-04-23 01:56:00,47.0,38.8,30.33,North,359,2.4,4.0,73,0.00,NA,NA,0.00,WeatherLink_script,2013-04-23 05:56:00,
2013-04-23 02:01:00,46.8,38.3,30.32,North,358,3.9,10.0,72,0.00,NA,NA,0.00,WeatherLink_script,2013-04-23 06:01:00,
2013-04-23 02:06:00,46.7,37.8,30.33,North,5,1.1,3.0,71,0.00,NA,NA,0.00,WeatherLink_script,2013-04-23 06:06:00,
2013-04-23 02:11:00,46.7,37.8,30.32,North,356,3.0,5.0,71,0.00,NA,NA,0.00,WeatherLink_script,2013-04-23 06:11:00,
2013-04-23 02:16:00,46.5,37.6,30.32,ENE,59,1.8,4.0,71,0.00,NA,NA,0.00,WeatherLink_script,2013-04-23 06:16:00,
2013-04-23 02:21:00,46.5,37.6,30.32,NNE,26,3.8,7.0,71,0.00,NA,NA,0.00,WeatherLink_script,2013-04-23 06:21:00,
2013-04-23 02:26:00,46.4,37.5,30.31,NNE,17,3.3,6.0,71,0.00,NA,NA,0.00,WeatherLink_script,2013-04-23 06:26:00,
2013-04-23 02:31:00,46.4,37.9,30.31,NNE,27,1.2,3.0,72,0.00,NA,NA,0.00,WeatherLink_script,2013-04-23 06:31:00,
2013-04-23 02:36:00,46.4,37.9,30.31,NNE,19,1.2,2.0,72,0.00,NA,NA,0.00,WeatherLink_script,2013-04-23 06:36:00,
2013-04-23 02:41:00,46.3,37.8,30.31,NNE,30,1.7,4.0,72,0.00,NA,NA,0.00,WeatherLink_script,2013-04-23 06:41:00,
2013-04-23 02:46:00,46.2,37.7,30.31,ENE,61,3.6,5.0,72,0.00,NA,NA,0.00,WeatherLink_script,2013-04-23 06:46:00,
2013-04-23 02:51:00,46.3,37.8,30.31,ESE,102,0.1,1.0,72,0.00,NA,NA,0.00,WeatherLink_script,2013-04-23 06:51:00,
2013-04-23 02:56:00,46.2,38.1,30.31,NE,53,1.2,3.0,73,0.00,NA,NA,0.00,WeatherLink_script,2013-04-23 06:56:00,
2013-04-23 03:01:00,46.3,38.1,30.30,North,0,1.9,3.0,73,0.00,NA,NA,0.00,WeatherLink_script,2013-04-23 07:01:00,
2013-04-23 03:06:00,46.1,37.9,30.30,North,0,1.5,3.0,73,0.00,NA,NA,0.00,WeatherLink_script,2013-04-23 07:06:00,
2013-04-23 03:11:00,46.1,38.3,30.30,NNE,33,1.6,3.0,74,0.00,NA,NA,0.00,WeatherLink_script,2013-04-23 07:11:00,
2013-04-23 03:16:00,46.1,38.3,30.30,NNW,334,1.9,3.0,74,0.00,NA,NA,0.00,WeatherLink_script,2013-04-23 07:16:00,
2013-04-23 03:21:00,46.1,38.3,30.30,NNW,340,2.5,5.0,74,0.00,NA,NA,0.00,WeatherLink_script,2013-04-23 07:21:00,
2013-04-23 03:26:00,46.0,37.8,30.30,West,281,3.5,7.0,73,0.00,NA,NA,0.00,WeatherLink_script,2013-04-23 07:26:00,
2013-04-23 03:31:00,45.9,38.1,30.30,WNW,287,0.5,2.0,74,0.00,NA,NA,0.00,WeatherLink_script,2013-04-23 07:31:00,
2013-04-23 03:36:00,45.8,38.0,30.29,NNE,19,1.2,2.0,74,0.00,NA,NA,0.00,WeatherLink_script,2013-04-23 07:36:00,
2013-04-23 03:41:00,45.7,38.2,30.30,NNW,348,0.9,2.0,75,0.00,NA,NA,0.00,WeatherLink_script,2013-04-23 07:41:00,
2013-04-23 03:46:00,45.5,38.0,30.30,NNW,348,1.3,2.0,75,0.00,NA,NA,0.00,WeatherLink_script,2013-04-23 07:46:00,
2013-04-23 03:51:00,45.5,38.0,30.30,NNW,339,1.4,2.0,75,0.00,NA,NA,0.00,WeatherLink_script,2013-04-23 07:51:00,
2013-04-23 03:56:00,45.4,37.9,30.30,North,0,1.4,3.0,75,0.00,NA,NA,0.00,WeatherLink_script,2013-04-23 07:56:00,
2013-04-23 04:01:00,45.4,38.3,30.30,North,0,0.7,2.0,76,0.00,NA,NA,0.00,WeatherLink_script,2013-04-23 08:01:00,
2013-04-23 04:06:00,45.4,38.3,30.30,North,0,0.4,1.0,76,0.00,NA,NA,0.00,WeatherLink_script,2013-04-23 08:06:00,
2013-04-23 04:12:00,45.2,37.7,30.30,ENE,57,0.8,2.0,75,0.00,NA,NA,0.00,WeatherLink_script,2013-04-23 08:12:00,
2013-04-23 04:17:00,45.2,38.1,30.29,ENE,57,0.6,2.0,76,0.00,NA,NA,0.00,WeatherLink_script,2013-04-23 08:17:00,
2013-04-23 04:22:00,45.2,37.7,30.29,NNE,16,1.8,3.0,75,0.00,NA,NA,0.00,WeatherLink_script,2013-04-23 08:22:00,
2013-04-23 04:27:00,45.2,37.7,30.29,NNW,340,1.1,2.0,75,0.00,NA,NA,0.00,WeatherLink_script,2013-04-23 08:27:00,
2013-04-23 04:32:00,45.1,38.0,30.29,NNE,23,2.9,5.0,76,0.00,NA,NA,0.00,WeatherLink_script,2013-04-23 08:32:00,
2013-04-23 04:37:00,45.1,38.0,30.29,NNE,21,0.7,3.0,76,0.00,NA,NA,0.00,WeatherLink_script,2013-04-23 08:37:00,
2013-04-23 04:42:00,45.1,37.7,30.29,NNE,14,1.4,3.0,75,0.00,NA,NA,0.00,WeatherLink_script,2013-04-23 08:42:00,
2013-04-23 04:47:00,45.1,37.7,30.30,NE,48,3.8,7.0,75,0.00,NA,NA,0.00,WeatherLink_script,2013-04-23 08:47:00,
2013-04-23 04:52:00,44.9,37.5,30.29,NE,52,0.9,3.0,75,0.00,NA,NA,0.00,WeatherLink_script,2013-04-23 08:52:00,
2013-04-23 04:57:00,44.9,37.5,30.29,NE,38,0.9,2.0,75,0.00,NA,NA,0.00,WeatherLink_script,2013-04-23 08:57:00,
2013-04-23 05:02:00,44.9,37.5,30.29,NE,41,0.8,3.0,75,0.00,NA,NA,0.00,WeatherLink_script,2013-04-23 09:02:00,
2013-04-23 05:07:00,44.9,37.5,30.29,NE,50,0.9,2.0,75,0.00,NA,NA,0.00,WeatherLink_script,2013-04-23 09:07:00,
2013-04-23 05:12:00,44.9,37.5,30.29,NE,46,1.8,4.0,75,0.00,NA,NA,0.00,WeatherLink_script,2013-04-23 09:12:00,
2013-04-23 05:17:00,44.9,37.5,30.29,NE,39,0.2,1.0,75,0.00,NA,NA,0.00,WeatherLink_script,2013-04-23 09:17:00,
2013-04-23 05:22:00,44.9,37.5,30.29,ENE,61,1.2,3.0,75,0.00,NA,NA,0.00,WeatherLink_script,2013-04-23 09:22:00,
2013-04-23 05:27:00,44.9,37.1,30.29,NNE,26,0.8,2.0,74,0.00,NA,NA,0.00,WeatherLink_script,2013-04-23 09:27:00,
2013-04-23 05:32:00,44.7,37.3,30.28,SSW,193,1.1,3.0,75,0.00,NA,NA,0.00,WeatherLink_script,2013-04-23 09:32:00,
2013-04-23 05:37:00,44.7,37.3,30.28,SE,146,1.5,3.0,75,0.00,NA,NA,0.00,WeatherLink_script,2013-04-23 09:37:00,
2013-04-23 05:42:00,44.7,36.9,30.28,SE,145,0.7,2.0,74,0.00,NA,NA,0.00,WeatherLink_script,2013-04-23 09:42:00,
2013-04-23 05:47:00,44.7,37.3,30.28,NE,51,0.7,2.0,75,0.00,NA,NA,0.00,WeatherLink_script,2013-04-23 09:47:00,
2013-04-23 05:52:00,44.7,37.3,30.28,NE,51,1.2,2.0,75,0.00,NA,NA,0.00,WeatherLink_script,2013-04-23 09:52:00,
2013-04-23 05:57:00,44.7,37.3,30.28,NE,51,1.3,3.0,75,0.00,NA,NA,0.00,WeatherLink_script,2013-04-23 09:57:00,
2013-04-23 06:02:00,44.7,37.3,30.28,ENE,71,2.9,5.0,75,0.00,NA,NA,0.00,WeatherLink_script,2013-04-23 10:02:00,
2013-04-23 06:07:00,44.7,36.9,30.28,NE,52,1.0,2.0,74,0.00,NA,NA,0.00,WeatherLink_script,2013-04-23 10:07:00,
2013-04-23 06:12:00,44.7,36.9,30.27,NNE,14,1.4,2.0,74,0.00,NA,NA,0.00,WeatherLink_script,2013-04-23 10:12:00,
2013-04-23 06:17:00,44.6,36.8,30.27,NNE,14,2.0,3.0,74,0.00,NA,NA,0.00,WeatherLink_script,2013-04-23 10:17:00,
2013-04-23 06:22:00,44.6,36.8,30.27,North,359,1.7,3.0,74,0.00,NA,NA,0.00,WeatherLink_script,2013-04-23 10:22:00,
2013-04-23 06:27:00,44.6,36.8,30.27,North,359,1.1,2.0,74,0.00,NA,NA,0.00,WeatherLink_script,2013-04-23 10:27:00,
2013-04-23 06:32:00,44.6,37.2,30.27,North,359,1.7,3.0,75,0.00,NA,NA,0.00,WeatherLink_script,2013-04-23 10:32:00,
2013-04-23 06:37:00,44.6,36.8,30.28,North,359,1.2,3.0,74,0.00,NA,NA,0.00,WeatherLink_script,2013-04-23 10:37:00,
2013-04-23 06:42:00,44.6,36.8,30.27,North,352,3.1,6.0,74,0.00,NA,NA,0.00,WeatherLink_script,2013-04-23 10:42:00,
2013-04-23 06:47:00,44.6,37.2,30.27,NNW,346,0.8,2.0,75,0.00,NA,NA,0.00,WeatherLink_script,2013-04-23 10:47:00,
2013-04-23 06:52:00,44.6,37.2,30.28,NNE,30,1.0,3.0,75,0.00,NA,NA,0.00,WeatherLink_script,2013-04-23 10:52:00,
2013-04-23 06:57:00,44.6,36.8,30.28,NNE,30,1.2,2.0,74,0.00,NA,NA,0.00,WeatherLink_script,2013-04-23 10:57:00,
2013-04-23 07:02:00,44.6,36.9,30.28,NNE,30,1.9,3.0,74,0.00,NA,NA,0.00,WeatherLink_script,2013-04-23 11:02:00,
2013-04-23 07:07:00,44.7,36.9,30.28,North,7,1.3,3.0,74,0.00,NA,NA,0.00,WeatherLink_script,2013-04-23 11:07:00,
2013-04-23 07:12:00,44.7,36.9,30.28,North,6,1.3,3.0,74,0.00,NA,NA,0.00,WeatherLink_script,2013-04-23 11:12:00,
2013-04-23 07:17:00,44.7,36.9,30.27,North,6,0.8,2.0,74,0.00,NA,NA,0.00,WeatherLink_script,2013-04-23 11:17:00,
2013-04-23 07:22:00,44.7,37.3,30.27,North,6,0.7,2.0,75,0.00,NA,NA,0.00,WeatherLink_script,2013-04-23 11:22:00,
2013-04-23 07:27:00,44.9,37.1,30.28,North,7,1.5,2.0,74,0.00,NA,NA,0.00,WeatherLink_script,2013-04-23 11:27:00,
2013-04-23 07:32:00,44.9,36.8,30.27,North,7,2.0,3.0,73,0.00,NA,NA,0.00,WeatherLink_script,2013-04-23 11:32:00,
2013-04-23 07:37:00,44.9,37.1,30.27,NE,34,1.2,2.0,74,0.00,NA,NA,0.00,WeatherLink_script,2013-04-23 11:37:00,
2013-04-23 07:42:00,45.1,37.3,30.27,North,3,1.3,3.0,74,0.00,NA,NA,0.00,WeatherLink_script,2013-04-23 11:42:00,
2013-04-23 07:47:00,45.1,37.3,30.28,ENE,66,1.3,2.0,74,0.00,NA,NA,0.00,WeatherLink_script,2013-04-23 11:47:00,
2013-04-23 07:52:00,45.2,37.4,30.28,ENE,65,0.8,3.0,74,0.00,NA,NA,0.00,WeatherLink_script,2013-04-23 11:52:00,
2013-04-23 07:57:00,45.2,37.4,30.27,North,358,0.1,1.0,74,0.00,NA,NA,0.00,WeatherLink_script,2013-04-23 11:57:00,
2013-04-23 08:02:00,45.4,37.3,30.28,NE,51,2.8,5.0,73,0.00,NA,NA,0.00,WeatherLink_script,2013-04-23 12:02:00,
2013-04-23 08:07:00,45.4,37.3,30.28,North,8,1.1,3.0,73,0.00,NA,NA,0.00,WeatherLink_script,2013-04-23 12:07:00,
2013-04-23 08:12:00,45.4,37.3,30.27,NNE,28,1.4,2.0,73,0.00,NA,NA,0.00,WeatherLink_script,2013-04-23 12:12:00,
2013-04-23 08:17:00,45.5,37.4,30.28,North,10,2.4,4.0,73,0.00,NA,NA,0.00,WeatherLink_script,2013-04-23 12:17:00,
2013-04-23 08:22:00,45.7,37.2,30.28,NNE,30,4.6,7.0,72,0.00,NA,NA,0.00,WeatherLink_script,2013-04-23 12:22:00,
2013-04-23 08:27:00,45.7,37.2,30.28,NE,45,2.8,5.0,72,0.00,NA,NA,0.00,WeatherLink_script,2013-04-23 12:27:00,
2013-04-23 08:32:00,45.8,37.7,30.28,North,359,1.1,3.0,73,0.00,NA,NA,0.00,WeatherLink_script,2013-04-23 12:32:00,
2013-04-23 08:37:00,45.8,37.3,30.28,East,99,1.0,3.0,72,0.00,NA,NA,0.00,WeatherLink_script,2013-04-23 12:37:00,
2013-04-23 08:42:00,46.0,37.8,30.27,NW,325,0.5,2.0,73,0.00,NA,NA,0.00,WeatherLink_script,2013-04-23 12:42:00,
2013-04-23 08:47:00,46.1,37.6,30.28,NW,325,1.3,3.0,72,0.00,NA,NA,0.00,WeatherLink_script,2013-04-23 12:47:00,
2013-04-23 08:52:00,46.1,37.6,30.28,NNW,342,3.4,6.0,72,0.00,NA,NA,0.00,WeatherLink_script,2013-04-23 12:52:00,
2013-04-23 08:57:00,46.1,37.6,30.28,NE,47,3.5,5.0,72,0.00,NA,NA,0.00,WeatherLink_script,2013-04-23 12:57:00,
2013-04-23 09:02:00,46.4,37.9,30.27,ENE,61,0.9,2.0,72,0.00,NA,NA,0.00,WeatherLink_script,2013-04-23 13:02:00,
2013-04-23 09:07:00,46.6,38.7,30.27,NNE,22,0.2,1.0,74,0.00,NA,NA,0.00,WeatherLink_script,2013-04-23 13:07:00,
2013-04-23 09:12:00,47.0,38.1,30.27,NE,56,2.8,6.0,71,0.00,NA,NA,0.00,WeatherLink_script,2013-04-23 13:12:00,
2013-04-23 09:17:00,47.3,38.4,30.26,NE,44,1.3,3.0,71,0.00,NA,NA,0.00,WeatherLink_script,2013-04-23 13:17:00,
2013-04-23 09:22:00,47.7,38.4,30.26,ENE,66,3.6,6.0,70,0.00,NA,NA,0.00,WeatherLink_script,2013-04-23 13:22:00,
2013-04-23 09:27:00,48.0,38.7,30.26,East,83,2.3,5.0,70,0.00,NA,NA,0.00,WeatherLink_script,2013-04-23 13:27:00,
2013-04-23 09:32:00,48.3,39.0,30.26,ENE,58,3.4,7.0,70,0.00,NA,NA,0.00,WeatherLink_script,2013-04-23 13:32:00,
2013-04-23 09:37:00,49.2,39.5,30.26,NE,55,3.7,6.0,69,0.00,NA,NA,0.00,WeatherLink_script,2013-04-23 13:37:00,
2013-04-23 09:42:00,49.5,39.4,30.26,ESE,103,3.3,5.0,68,0.00,NA,NA,0.00,WeatherLink_script,2013-04-23 13:42:00,
2013-04-23 09:47:00,49.8,39.7,30.26,ESE,102,3.1,6.0,68,0.00,NA,NA,0.00,WeatherLink_script,2013-04-23 13:47:00,
2013-04-23 09:52:00,49.9,39.4,30.26,ENE,62,5.7,7.0,67,0.00,NA,NA,0.00,WeatherLink_script,2013-04-23 13:52:00,
2013-04-23 09:57:00,50.0,39.1,30.26,East,81,3.5,5.0,66,0.00,NA,NA,0.00,WeatherLink_script,2013-04-23 13:57:00,
2013-04-23 10:02:00,50.1,39.9,30.26,NE,55,0.7,2.0,68,0.00,NA,NA,0.00,WeatherLink_script,2013-04-23 14:02:00,
2013-04-23 10:07:00,50.5,40.0,30.26,NNE,26,2.9,4.0,67,0.00,NA,NA,0.00,WeatherLink_script,2013-04-23 14:07:00,
2013-04-23 10:12:00,50.6,39.7,30.26,NNE,29,2.4,4.0,66,0.00,NA,NA,0.00,WeatherLink_script,2013-04-23 14:12:00,
2013-04-23 10:17:00,50.8,39.8,30.26,NNE,30,4.0,7.0,66,0.00,NA,NA,0.00,WeatherLink_script,2013-04-23 14:17:00,
2013-04-23 10:22:00,50.8,39.9,30.25,ENE,58,3.3,5.0,66,0.00,NA,NA,0.00,WeatherLink_script,2013-04-23 14:22:00,
2013-04-23 10:27:00,51.2,39.9,30.25,NNE,28,3.6,6.0,65,0.00,NA,NA,0.00,WeatherLink_script,2013-04-23 14:27:00,
2013-04-23 10:32:00,51.5,40.1,30.25,NE,46,3.9,5.0,65,0.00,NA,NA,0.00,WeatherLink_script,2013-04-23 14:32:00,
2013-04-23 10:37:00,52.0,40.2,30.25,East,93,2.1,4.0,64,0.00,NA,NA,0.00,WeatherLink_script,2013-04-23 14:37:00,
2013-04-23 10:42:00,52.3,40.9,30.25,NNE,20,1.9,3.0,65,0.00,NA,NA,0.00,WeatherLink_script,2013-04-23 14:42:00,
2013-04-23 10:47:00,52.6,40.8,30.24,NNE,30,3.4,5.0,64,0.00,NA,NA,0.00,WeatherLink_script,2013-04-23 14:47:00,
2013-04-23 10:52:00,53.0,40.8,30.24,NE,47,4.5,7.0,63,0.00,NA,NA,0.00,WeatherLink_script,2013-04-23 14:52:00,
2013-04-23 10:57:00,53.3,41.4,30.25,East,86,1.9,3.0,64,0.00,NA,NA,0.00,WeatherLink_script,2013-04-23 14:57:00,
2013-04-23 11:02:00,53.7,41.9,30.25,ESE,113,1.5,3.0,64,0.00,NA,NA,0.00,WeatherLink_script,2013-04-23 15:02:00,
2013-04-23 11:07:00,54.0,41.3,30.25,ENE,72,0.7,3.0,62,0.00,NA,NA,0.00,WeatherLink_script,2013-04-23 15:07:00,
2013-04-23 11:12:00,54.3,42.4,30.25,North,350,1.8,3.0,64,0.00,NA,NA,0.00,WeatherLink_script,2013-04-23 15:12:00,
2013-04-23 11:17:00,54.6,42.3,30.25,South,180,1.2,2.0,63,0.00,NA,NA,0.00,WeatherLink_script,2013-04-23 15:17:00,
2013-04-23 11:22:00,54.8,41.6,30.25,South,179,1.1,2.0,61,0.00,NA,NA,0.00,WeatherLink_script,2013-04-23 15:22:00,
2013-04-23 11:27:00,55.2,41.5,30.24,NE,45,4.1,6.0,60,0.00,NA,NA,0.00,WeatherLink_script,2013-04-23 15:27:00,
2013-04-23 11:32:00,54.7,41.1,30.24,SSE,165,1.2,2.0,60,0.00,NA,NA,0.00,WeatherLink_script,2013-04-23 15:32:00,
2013-04-23 11:37:00,54.7,41.9,30.24,NE,48,1.3,3.0,62,0.00,NA,NA,0.00,WeatherLink_script,2013-04-23 15:37:00,
2013-04-23 11:42:00,54.6,41.4,30.24,ESE,106,2.1,4.0,61,0.00,NA,NA,0.00,WeatherLink_script,2013-04-23 15:42:00,
2013-04-23 11:47:00,54.4,41.2,30.25,ENE,75,2.8,5.0,61,0.00,NA,NA,0.00,WeatherLink_script,2013-04-23 15:47:00,
2013-04-23 11:52:00,54.4,40.8,30.24,NE,43,2.4,3.0,60,0.00,NA,NA,0.00,WeatherLink_script,2013-04-23 15:52:00,
2013-04-23 11:57:00,54.7,42.4,30.24,East,100,1.6,3.0,63,0.00,NA,NA,0.00,WeatherLink_script,2013-04-23 15:57:00,
2013-04-23 12:02:00,54.9,41.7,30.24,NNE,30,2.6,4.0,61,0.00,NA,NA,0.00,WeatherLink_script,2013-04-23 16:02:00,
2013-04-23 12:07:00,55.2,41.6,30.24,NNE,28,2.0,3.0,60,0.00,NA,NA,0.00,WeatherLink_script,2013-04-23 16:07:00,
2013-04-23 12:12:00,55.5,41.9,30.24,ENE,60,1.8,4.0,60,0.00,NA,NA,0.00,WeatherLink_script,2013-04-23 16:12:00,
2013-04-23 12:17:00,56.1,42.4,30.25,SSE,165,2.7,4.0,60,0.00,NA,NA,0.00,WeatherLink_script,2013-04-23 16:17:00,
2013-04-23 12:22:00,56.4,41.3,30.25,SSE,148,3.3,4.0,57,0.00,NA,NA,0.00,WeatherLink_script,2013-04-23 16:22:00,
2013-04-23 12:27:00,56.5,42.8,30.24,ENE,66,3.6,5.0,60,0.00,NA,NA,0.00,WeatherLink_script,2013-04-23 16:27:00,
2013-04-23 12:32:00,56.8,42.1,30.23,SSE,147,4.0,5.0,58,0.00,NA,NA,0.00,WeatherLink_script,2013-04-23 16:32:00,
2013-04-23 12:37:00,56.8,42.2,30.23,South,180,1.8,3.0,58,0.00,NA,NA,0.00,WeatherLink_script,2013-04-23 16:37:00,
2013-04-23 12:42:00,57.3,44.0,30.23,NNE,21,1.8,3.0,61,0.00,NA,NA,0.00,WeatherLink_script,2013-04-23 16:42:00,
2013-04-23 12:47:00,57.6,42.5,30.23,NE,35,0.0,0.0,57,0.00,NA,NA,0.00,WeatherLink_script,2013-04-23 16:47:00,
2013-04-23 12:52:00,57.8,43.1,30.24,NNE,23,2.5,4.0,58,0.00,NA,NA,0.00,WeatherLink_script,2013-04-23 16:52:00,
2013-04-23 12:57:00,57.9,41.9,30.23,ENE,66,2.7,4.0,55,0.00,NA,NA,0.00,WeatherLink_script,2013-04-23 16:57:00,
2013-04-23 13:02:00,57.6,42.0,30.23,SSW,192,3.8,6.0,56,0.00,NA,NA,0.00,WeatherLink_script,2013-04-23 17:02:00,
2013-04-23 13:07:00,57.4,42.3,30.23,SSE,147,0.8,2.0,57,0.00,NA,NA,0.00,WeatherLink_script,2013-04-23 17:07:00,
2013-04-23 13:12:00,57.4,42.7,30.23,SSE,158,0.6,1.0,58,0.00,NA,NA,0.00,WeatherLink_script,2013-04-23 17:12:00,
2013-04-23 13:17:00,57.9,43.7,30.23,SSE,160,0.8,3.0,59,0.00,NA,NA,0.00,WeatherLink_script,2013-04-23 17:17:00,
2013-04-23 13:22:00,58.3,44.4,30.24,SE,135,0.4,2.0,60,0.00,NA,NA,0.00,WeatherLink_script,2013-04-23 17:22:00,
2013-04-23 13:27:00,59.0,43.8,30.23,SE,137,1.0,2.0,57,0.00,NA,NA,0.00,WeatherLink_script,2013-04-23 17:27:00,
2013-04-23 13:32:00,59.7,44.0,30.22,South,173,2.9,5.0,56,0.00,NA,NA,0.00,WeatherLink_script,2013-04-23 17:32:00,
2013-04-23 13:37:00,59.9,45.5,30.21,ESE,110,2.1,4.0,59,0.00,NA,NA,0.00,WeatherLink_script,2013-04-23 17:37:00,
2013-04-23 13:42:00,60.5,44.7,30.21,South,182,4.2,6.0,56,0.00,NA,NA,0.00,WeatherLink_script,2013-04-23 17:42:00,
2013-04-23 13:47:00,60.7,43.4,30.20,SE,128,1.3,3.0,53,0.00,NA,NA,0.00,WeatherLink_script,2013-04-23 17:47:00,
2013-04-23 13:52:00,61.2,44.9,30.19,ENE,76,2.6,4.0,55,0.00,NA,NA,0.00,WeatherLink_script,2013-04-23 17:52:00,
2013-04-23 13:57:00,61.7,44.9,30.20,East,91,2.5,4.0,54,0.00,NA,NA,0.00,WeatherLink_script,2013-04-23 17:57:00,
2013-04-23 14:02:00,61.8,45.5,30.20,East,90,2.2,4.0,55,0.00,NA,NA,0.00,WeatherLink_script,2013-04-23 18:02:00,
2013-04-23 14:07:00,61.9,44.6,30.19,South,183,0.3,1.0,53,0.00,NA,NA,0.00,WeatherLink_script,2013-04-23 18:07:00,
2013-04-23 14:12:00,62.2,45.8,30.19,SE,129,0.8,3.0,55,0.00,NA,NA,0.00,WeatherLink_script,2013-04-23 18:12:00,
2013-04-23 14:17:00,62.7,46.3,30.19,SSE,150,2.7,5.0,55,0.00,NA,NA,0.00,WeatherLink_script,2013-04-23 18:17:00,
2013-04-23 14:22:00,63.0,45.6,30.19,ESE,119,0.8,2.0,53,0.00,NA,NA,0.00,WeatherLink_script,2013-04-23 18:22:00,
2013-04-23 14:27:00,63.3,45.9,30.19,SSW,192,2.5,6.0,53,0.00,NA,NA,0.00,WeatherLink_script,2013-04-23 18:27:00,
2013-04-23 14:32:00,63.2,44.7,30.19,SSW,211,1.0,4.0,51,0.00,NA,NA,0.00,WeatherLink_script,2013-04-23 18:32:00,
2013-04-23 14:37:00,63.4,45.9,30.19,SW,215,2.4,4.0,53,0.00,NA,NA,0.00,WeatherLink_script,2013-04-23 18:37:00,
2013-04-23 14:42:00,63.8,45.3,30.18,SSW,197,1.8,4.0,51,0.00,NA,NA,0.00,WeatherLink_script,2013-04-23 18:42:00,
2013-04-23 14:47:00,63.9,47.4,30.18,SSW,197,1.4,2.0,55,0.00,NA,NA,0.00,WeatherLink_script,2013-04-23 18:47:00,
2013-04-23 14:52:00,64.3,46.3,30.18,ENE,64,3.6,8.0,52,0.00,NA,NA,0.00,WeatherLink_script,2013-04-23 18:52:00,
2013-04-23 14:57:00,64.3,47.8,30.17,East,99,1.2,2.0,55,0.00,NA,NA,0.00,WeatherLink_script,2013-04-23 18:57:00,
2013-04-23 15:02:00,64.4,45.9,30.17,SE,141,3.0,4.0,51,0.00,NA,NA,0.00,WeatherLink_script,2013-04-23 19:02:00,
2013-04-23 15:07:00,64.3,46.8,30.17,ENE,61,2.1,5.0,53,0.00,NA,NA,0.00,WeatherLink_script,2013-04-23 19:07:00,
2013-04-23 15:12:00,64.6,46.6,30.17,East,83,1.5,2.0,52,0.00,NA,NA,0.00,WeatherLink_script,2013-04-23 19:12:00,
2013-04-23 15:17:00,64.4,45.9,30.16,SSE,168,0.5,2.0,51,0.00,NA,NA,0.00,WeatherLink_script,2013-04-23 19:17:00,
2013-04-23 15:22:00,64.6,46.6,30.16,ESE,102,2.2,3.0,52,0.00,NA,NA,0.00,WeatherLink_script,2013-04-23 19:22:00,
2013-04-23 15:27:00,64.6,46.6,30.15,South,169,2.0,3.0,52,0.00,NA,NA,0.00,WeatherLink_script,2013-04-23 19:27:00,
2013-04-23 15:32:00,64.8,46.7,30.15,ENE,63,1.6,4.0,52,0.00,NA,NA,0.00,WeatherLink_script,2013-04-23 19:32:00,
2013-04-23 15:37:00,64.9,47.4,30.14,East,79,1.7,3.0,53,0.00,NA,NA,0.00,WeatherLink_script,2013-04-23 19:37:00,
2013-04-23 15:42:00,65.1,47.1,30.15,ENE,70,1.2,3.0,52,0.00,NA,NA,0.00,WeatherLink_script,2013-04-23 19:42:00,
2013-04-23 15:47:00,65.2,45.5,30.15,ENE,57,2.7,5.0,49,0.00,NA,NA,0.00,WeatherLink_script,2013-04-23 19:47:00,
2013-04-23 15:52:00,64.9,46.9,30.14,ESE,103,2.0,3.0,52,0.00,NA,NA,0.00,WeatherLink_script,2013-04-23 19:52:00,
2013-04-23 15:57:00,64.9,46.3,30.14,ESE,111,2.4,4.0,51,0.00,NA,NA,0.00,WeatherLink_script,2013-04-23 19:57:00,
2013-04-23 16:02:00,64.8,47.3,30.14,ESE,109,2.7,5.0,53,0.00,NA,NA,0.00,WeatherLink_script,2013-04-23 20:02:00,
2013-04-23 16:07:00,64.9,47.9,30.13,East,85,1.2,3.0,54,0.00,NA,NA,0.00,WeatherLink_script,2013-04-23 20:07:00,
2013-04-23 16:12:00,65.2,46.6,30.14,ESE,119,1.4,3.0,51,0.00,NA,NA,0.00,WeatherLink_script,2013-04-23 20:12:00,
2013-04-23 16:17:00,65.2,46.1,30.13,ESE,103,2.4,4.0,50,0.00,NA,NA,0.00,WeatherLink_script,2013-04-23 20:17:00,
2013-04-23 16:22:00,65.2,47.1,30.14,SE,128,1.3,3.0,52,0.00,NA,NA,0.00,WeatherLink_script,2013-04-23 20:22:00,
2013-04-23 16:27:00,65.3,47.2,30.13,ESE,114,1.0,2.0,52,0.00,NA,NA,0.00,WeatherLink_script,2013-04-23 20:27:00,
2013-04-23 16:32:00,65.4,47.3,30.12,East,80,2.6,5.0,52,0.00,NA,NA,0.00,WeatherLink_script,2013-04-23 20:32:00,
2013-04-23 16:37:00,65.2,46.1,30.12,ENE,76,3.1,5.0,50,0.00,NA,NA,0.00,WeatherLink_script,2013-04-23 20:37:00,
2013-04-23 16:42:00,65.1,46.5,30.13,SE,127,1.7,3.0,51,0.00,NA,NA,0.00,WeatherLink_script,2013-04-23 20:42:00,
2013-04-23 16:47:00,65.1,46.5,30.12,ESE,120,1.9,3.0,51,0.00,NA,NA,0.00,WeatherLink_script,2013-04-23 20:47:00,
2013-04-23 16:52:00,65.2,47.6,30.12,East,83,1.6,3.0,53,0.00,NA,NA,0.00,WeatherLink_script,2013-04-23 20:52:00,
2013-04-23 16:57:00,65.2,46.6,30.12,East,88,2.9,4.0,51,0.00,NA,NA,0.00,WeatherLink_script,2013-04-23 20:57:00,
2013-04-23 17:02:00,65.4,46.8,30.13,ESE,113,1.7,4.0,51,0.00,NA,NA,0.00,WeatherLink_script,2013-04-23 21:02:00,
2013-04-23 17:07:00,65.2,46.6,30.12,East,82,1.8,3.0,51,0.00,NA,NA,0.00,WeatherLink_script,2013-04-23 21:07:00,
2013-04-23 17:12:00,65.0,46.5,30.12,ENE,78,3.0,6.0,51,0.00,NA,NA,0.00,WeatherLink_script,2013-04-23 21:12:00,
2013-04-23 17:17:00,64.9,46.9,30.12,ESE,102,0.5,2.0,52,0.00,NA,NA,0.00,WeatherLink_script,2013-04-23 21:17:00,
2013-04-23 17:22:00,64.9,46.9,30.12,SSE,163,2.0,3.0,52,0.00,NA,NA,0.00,WeatherLink_script,2013-04-23 21:22:00,
2013-04-23 17:27:00,65.0,47.0,30.12,SW,235,1.5,3.0,52,0.00,NA,NA,0.00,WeatherLink_script,2013-04-23 21:27:00,
2013-04-23 17:32:00,64.9,45.8,30.12,SE,144,1.0,2.0,50,0.00,NA,NA,0.00,WeatherLink_script,2013-04-23 21:32:00,
2013-04-23 17:37:00,64.8,45.7,30.11,SE,143,1.3,2.0,50,0.00,NA,NA,0.00,WeatherLink_script,2013-04-23 21:37:00,
2013-04-23 17:42:00,64.8,46.8,30.12,SE,143,0.5,2.0,52,0.00,NA,NA,0.00,WeatherLink_script,2013-04-23 21:42:00,
2013-04-23 17:47:00,64.6,47.1,30.12,East,99,1.8,3.0,53,0.00,NA,NA,0.00,WeatherLink_script,2013-04-23 21:47:00,
2013-04-23 17:52:00,64.5,46.9,30.12,ESE,103,1.2,3.0,53,0.00,NA,NA,0.00,WeatherLink_script,2013-04-23 21:52:00,
2013-04-23 17:57:00,64.4,46.4,30.11,East,90,1.6,2.0,52,0.00,NA,NA,0.00,WeatherLink_script,2013-04-23 21:57:00,
2013-04-23 18:02:00,64.0,47.0,30.11,ESE,114,0.2,1.0,54,0.00,NA,NA,0.00,WeatherLink_script,2013-04-23 22:02:00,
2013-04-23 18:07:00,64.0,47.0,30.11,ESE,114,1.1,2.0,54,0.00,NA,NA,0.00,WeatherLink_script,2013-04-23 22:07:00,
2013-04-23 18:12:00,63.6,46.2,30.11,ESE,114,0.6,2.0,53,0.00,NA,NA,0.00,WeatherLink_script,2013-04-23 22:12:00,
2013-04-23 18:17:00,63.4,46.5,30.11,ESE,114,1.4,2.0,54,0.00,NA,NA,0.00,WeatherLink_script,2013-04-23 22:17:00,
2013-04-23 18:22:00,63.0,47.1,30.11,ESE,114,0.7,2.0,56,0.00,NA,NA,0.00,WeatherLink_script,2013-04-23 22:22:00,
2013-04-23 18:27:00,63.0,47.0,30.11,ESE,115,0.5,2.0,56,0.00,NA,NA,0.00,WeatherLink_script,2013-04-23 22:27:00,
2013-04-23 18:32:00,62.7,46.3,30.11,ESE,114,0.7,2.0,55,0.00,NA,NA,0.00,WeatherLink_script,2013-04-23 22:32:00,
2013-04-23 18:37:00,62.5,46.1,30.11,ESE,114,1.5,2.0,55,0.00,NA,NA,0.00,WeatherLink_script,2013-04-23 22:37:00,
2013-04-23 18:42:00,62.2,46.3,30.11,ESE,114,2.0,4.0,56,0.00,NA,NA,0.00,WeatherLink_script,2013-04-23 22:42:00,
2013-04-23 18:47:00,62.0,47.5,30.10,ESE,114,1.4,3.0,59,0.00,NA,NA,0.00,WeatherLink_script,2013-04-23 22:47:00,
2013-04-23 18:52:00,61.7,46.3,30.10,SSE,154,1.3,2.0,57,0.00,NA,NA,0.00,WeatherLink_script,2013-04-23 22:52:00,
2013-04-23 18:57:00,61.6,47.1,30.10,South,181,2.5,4.0,59,0.00,NA,NA,0.00,WeatherLink_script,2013-04-23 22:57:00,
2013-04-23 19:02:00,61.5,46.6,30.10,SSE,166,1.7,5.0,58,0.00,NA,NA,0.00,WeatherLink_script,2013-04-23 23:02:00,
2013-04-23 19:07:00,61.3,46.4,30.10,East,83,1.5,4.0,58,0.00,NA,NA,0.00,WeatherLink_script,2013-04-23 23:07:00,
2013-04-23 19:12:00,61.2,46.8,30.10,NNE,22,2.2,3.0,59,0.00,NA,NA,0.00,WeatherLink_script,2013-04-23 23:12:00,
2013-04-23 19:17:00,61.0,46.6,30.11,NE,43,0.6,2.0,59,0.00,NA,NA,0.00,WeatherLink_script,2013-04-23 23:17:00,
2013-04-23 19:22:00,60.9,46.0,30.11,NE,43,0.5,2.0,58,0.00,NA,NA,0.00,WeatherLink_script,2013-04-23 23:22:00,
2013-04-23 19:27:00,60.7,46.7,30.11,North,351,0.3,2.0,60,0.00,NA,NA,0.00,WeatherLink_script,2013-04-23 23:27:00,
2013-04-23 19:32:00,60.5,46.5,30.11,North,350,0.7,1.0,60,0.00,NA,NA,0.00,WeatherLink_script,2013-04-23 23:32:00,
2013-04-23 19:37:00,60.2,46.2,30.11,North,351,1.7,3.0,60,0.00,NA,NA,0.00,WeatherLink_script,2013-04-23 23:37:00,
2013-04-23 19:42:00,60.0,46.5,30.12,North,351,0.6,2.0,61,0.00,NA,NA,0.00,WeatherLink_script,2013-04-23 23:42:00,
2013-04-23 19:47:00,59.7,46.2,30.12,North,351,0.0,0.0,61,0.00,NA,NA,0.00,WeatherLink_script,2013-04-23 23:47:00,
2013-04-23 19:52:00,59.4,46.4,30.12,North,351,0.4,2.0,62,0.00,NA,NA,0.00,WeatherLink_script,2013-04-23 23:52:00,
2013-04-23 19:57:00,59.1,46.1,30.13,North,351,0.8,1.0,62,0.00,NA,NA,0.00,WeatherLink_script,2013-04-23 23:57:00,
2013-04-23 20:02:00,58.8,46.3,30.13,North,352,1.2,2.0,63,0.00,NA,NA,0.00,WeatherLink_script,2013-04-24 00:02:00,
2013-04-23 20:07:00,58.5,45.9,30.13,North,352,2.0,4.0,63,0.00,NA,NA,0.00,WeatherLink_script,2013-04-24 00:07:00,
2013-04-23 20:12:00,58.3,46.2,30.13,NNE,12,1.2,3.0,64,0.00,NA,NA,0.00,WeatherLink_script,2013-04-24 00:12:00,
2013-04-23 20:17:00,58.0,46.3,30.13,NNE,12,1.1,3.0,65,0.00,NA,NA,0.00,WeatherLink_script,2013-04-24 00:17:00,
2013-04-23 20:22:00,57.9,46.2,30.13,NE,54,1.8,4.0,65,0.00,NA,NA,0.00,WeatherLink_script,2013-04-24 00:22:00,
2013-04-23 20:27:00,57.6,45.9,30.13,East,93,2.6,4.0,65,0.00,NA,NA,0.00,WeatherLink_script,2013-04-24 00:27:00,
2013-04-23 20:32:00,57.4,45.7,30.13,ESE,103,3.4,7.0,65,0.00,NA,NA,0.00,WeatherLink_script,2013-04-24 00:32:00,
2013-04-23 20:37:00,57.3,46.0,30.13,ENE,68,0.6,1.0,66,0.00,NA,NA,0.00,WeatherLink_script,2013-04-24 00:37:00,
2013-04-23 20:42:00,57.1,45.8,30.13,ENE,68,0.4,1.0,66,0.00,NA,NA,0.00,WeatherLink_script,2013-04-24 00:42:00,
2013-04-23 20:47:00,57.0,45.7,30.13,ENE,68,0.7,2.0,66,0.00,NA,NA,0.00,WeatherLink_script,2013-04-24 00:47:00,
2013-04-23 20:52:00,56.8,45.9,30.13,ENE,68,0.4,1.0,67,0.00,NA,NA,0.00,WeatherLink_script,2013-04-24 00:52:00,
2013-04-23 20:57:00,56.5,46.1,30.13,ENE,76,1.2,3.0,68,0.00,NA,NA,0.00,WeatherLink_script,2013-04-24 00:57:00,
2013-04-23 21:02:00,56.3,45.9,30.13,East,82,0.6,3.0,68,0.00,NA,NA,0.00,WeatherLink_script,2013-04-24 01:02:00,
2013-04-23 21:07:00,56.1,45.7,30.13,East,89,2.6,4.0,68,0.00,NA,NA,0.00,WeatherLink_script,2013-04-24 01:07:00,
2013-04-23 21:12:00,55.9,45.9,30.13,East,83,1.8,3.0,69,0.00,NA,NA,0.00,WeatherLink_script,2013-04-24 01:12:00,
2013-04-23 21:17:00,55.7,45.7,30.13,East,83,1.0,2.0,69,0.00,NA,NA,0.00,WeatherLink_script,2013-04-24 01:17:00,
2013-04-23 21:22:00,55.6,46.0,30.13,East,86,2.6,4.0,70,0.00,NA,NA,0.00,WeatherLink_script,2013-04-24 01:22:00,
2013-04-23 21:27:00,55.5,45.9,30.14,East,79,1.2,2.0,70,0.00,NA,NA,0.00,WeatherLink_script,2013-04-24 01:27:00,
2013-04-23 21:32:00,55.3,45.7,30.14,East,80,1.7,3.0,70,0.00,NA,NA,0.00,WeatherLink_script,2013-04-24 01:32:00,
2013-04-23 21:37:00,55.2,45.6,30.14,East,89,1.1,3.0,70,0.00,NA,NA,0.00,WeatherLink_script,2013-04-24 01:37:00,
2013-04-23 21:42:00,55.0,45.8,30.14,East,89,0.5,2.0,71,0.00,NA,NA,0.00,WeatherLink_script,2013-04-24 01:42:00,
2013-04-23 21:47:00,54.7,45.5,30.14,East,89,0.1,1.0,71,0.00,NA,NA,0.00,WeatherLink_script,2013-04-24 01:47:00,
2013-04-23 21:52:00,54.6,45.7,30.14,East,90,0.1,1.0,72,0.00,NA,NA,0.00,WeatherLink_script,2013-04-24 01:52:00,
2013-04-23 21:57:00,54.3,45.8,30.14,East,89,0.5,1.0,73,0.00,NA,NA,0.00,WeatherLink_script,2013-04-24 01:57:00,
2013-04-23 22:02:00,54.2,45.7,30.13,East,89,1.2,3.0,73,0.00,NA,NA,0.00,WeatherLink_script,2013-04-24 02:02:00,
2013-04-23 22:07:00,54.0,45.5,30.14,East,89,0.3,1.0,73,0.00,NA,NA,0.00,WeatherLink_script,2013-04-24 02:07:00,
2013-04-23 22:12:00,53.9,45.5,30.14,East,89,0.0,0.0,73,0.00,NA,NA,0.00,WeatherLink_script,2013-04-24 02:12:00,
2013-04-23 22:17:00,53.7,45.7,30.13,East,89,1.3,2.0,74,0.00,NA,NA,0.00,WeatherLink_script,2013-04-24 02:17:00,
2013-04-23 22:24:00,53.6,45.5,30.14,East,89,0.1,1.0,74,0.00,NA,NA,0.00,WeatherLink_script,2013-04-24 02:24:00,
2013-04-23 22:29:00,53.4,45.3,30.14,East,89,0.0,0.0,74,0.00,NA,NA,0.00,WeatherLink_script,2013-04-24 02:29:00,
2013-04-23 22:35:00,53.2,45.1,30.14,East,89,0.0,0.0,74,0.00,NA,NA,0.00,WeatherLink_script,2013-04-24 02:35:00,
2013-04-23 22:41:00,53.0,45.2,30.13,East,89,0.1,1.0,75,0.00,NA,NA,0.00,WeatherLink_script,2013-04-24 02:41:00,
2013-04-23 22:46:00,52.7,45.0,30.13,East,89,0.0,0.0,75,0.00,NA,NA,0.00,WeatherLink_script,2013-04-24 02:46:00,
2013-04-23 22:51:00,52.6,44.9,30.13,East,89,0.0,0.0,75,0.00,NA,NA,0.00,WeatherLink_script,2013-04-24 02:51:00,
2013-04-23 22:56:00,52.3,45.0,30.13,East,89,0.0,0.0,76,0.00,NA,NA,0.00,WeatherLink_script,2013-04-24 02:56:00,
2013-04-23 23:01:00,52.1,44.7,30.12,East,89,0.0,0.0,76,0.00,NA,NA,0.00,WeatherLink_script,2013-04-24 03:01:00,
2013-04-23 23:06:00,51.8,44.8,30.12,East,89,0.0,0.0,77,0.00,NA,NA,0.00,WeatherLink_script,2013-04-24 03:06:00,
2013-04-23 23:12:00,51.5,44.5,30.12,East,89,0.0,0.0,77,0.00,NA,NA,0.00,WeatherLink_script,2013-04-24 03:12:00,
2013-04-23 23:17:00,51.3,44.7,30.11,East,89,0.0,0.0,78,0.00,NA,NA,0.00,WeatherLink_script,2013-04-24 03:17:00,
2013-04-23 23:22:00,51.1,44.5,30.11,East,89,0.0,0.0,78,0.00,NA,NA,0.00,WeatherLink_script,2013-04-24 03:22:00,
2013-04-23 23:27:00,50.9,44.6,30.11,East,89,0.0,0.0,79,0.00,NA,NA,0.00,WeatherLink_script,2013-04-24 03:27:00,
2013-04-23 23:32:00,50.8,44.6,30.11,East,89,0.0,0.0,79,0.00,NA,NA,0.00,WeatherLink_script,2013-04-24 03:32:00,
2013-04-23 23:37:00,50.8,44.5,30.11,East,89,0.0,0.0,79,0.00,NA,NA,0.00,WeatherLink_script,2013-04-24 03:37:00,
2013-04-23 23:42:00,50.6,44.7,30.11,East,89,0.0,0.0,80,0.00,NA,NA,0.00,WeatherLink_script,2013-04-24 03:42:00,
2013-04-23 23:48:00,50.6,44.7,30.11,East,89,0.1,1.0,80,0.00,NA,NA,0.00,WeatherLink_script,2013-04-24 03:48:00,
2013-04-23 23:53:00,50.5,44.6,30.11,East,89,0.4,2.0,80,0.00,NA,NA,0.00,WeatherLink_script,2013-04-24 03:53:00,
2013-04-23 23:58:00,50.6,44.7,30.11,East,89,0.9,2.0,80,0.00,NA,NA,0.00,WeatherLink_script,2013-04-24 03:58:00,